FW3016 Weather Reports


time (UTC)temp
C
wind
direction
speed
KPH
gust
KPH
rain 1hr
cm
rain 24hr
cm
rain mn
cm
humidity
%
barometer
mb
20260510164601 17 34 4.8 17.7 0.00 0.00 0.00 73 1018.9
20260510163102 17 33 8.0 19.3 0.00 0.00 0.00 74 1018.3
20260510161548 17 13 11.3 17.7 0.00 0.00 0.00 74 1017.7
20260510160047 17 33 11.3 24.1 0.00 0.00 0.00 77 1017.4
20260510154544 17 12 9.7 24.1 0.00 0.00 0.00 78 1017.1
20260510153045 17 35 9.7 22.5 0.00 0.00 0.00 79 1017.0
20260510151542 17 11 8.0 22.5 0.00 0.00 0.00 81 1016.8
20260510150049 17 17 11.3 22.5 0.00 0.00 0.00 81 1016.3
20260510144553 17 51 8.0 20.9 0.00 0.00 0.00 81 1015.8
20260510143040 17 44 9.7 16.1 0.00 0.00 0.00 81 1016.2
20260510141539 17 38 4.8 16.1 0.00 0.00 0.00 80 1016.4
20260510140038 17 11 4.8 9.7 0.00 0.00 0.00 83 1016.2
20260510134538 17 304 0.0 4.8 0.00 0.00 0.00 84 1016.7
20260510133037 16 309 1.6 12.9 0.00 0.00 0.00 85 1017.0
20260510131533 16 296 4.8 14.5 0.00 0.00 0.00 86 1016.6
20260510130030 16 30 0.0 0.0 0.00 0.00 0.00 88 1015.7
20260510124548 16 30 0.0 1.6 0.00 0.00 0.00 88 1015.6
20260510123043 16 30 0.0 1.6 0.00 0.00 0.00 88 1015.0
20260510121539 16 30 0.0 0.0 0.00 0.00 0.00 87 1014.5
20260510120037 15 29 0.0 1.6 0.00 0.00 0.00 87 1014.0
20260510114535 15 29 0.0 0.0 0.00 0.00 0.00 86 1013.7
20260510113039 15 29 0.0 0.0 0.00 0.00 0.00 85 1013.6
20260510111530 16 30 0.0 0.0 0.00 0.00 0.00 84 1013.4
20260510110042 16 29 1.6 3.2 0.00 0.00 0.00 84 1013.2
20260510104525 16 31 0.0 3.2 0.00 0.00 0.00 83 1012.6
20260510103025 16 32 0.0 0.0 0.00 0.00 0.00 82 1012.8
20260510101523 17 32 0.0 0.0 0.00 0.00 0.00 82 1012.7
20260510100024 16 31 3.2 6.4 0.00 0.00 0.00 83 1012.5
20260510094534 16 36 1.6 4.8 0.00 0.00 0.00 84 1012.5
20260510093023 16 42 1.6 3.2 0.00 0.00 0.00 84 1012.6
20260510091520 16 43 0.0 3.2 0.00 0.00 0.00 83 1012.1
20260510090020 17 43 0.0 0.0 0.00 0.00 0.00 82 1011.8
20260510084515 17 43 0.0 0.0 0.00 0.00 0.00 80 1011.4
20260510083013 17 43 0.0 0.0 0.00 0.00 0.00 78 1010.8
20260510081510 18 43 0.0 3.2 0.00 0.00 0.00 76 1010.8
20260510080022 19 43 1.6 3.2 0.00 0.00 0.00 75 1010.7
20260510074508 20 43 0.0 3.2 0.00 0.00 0.00 74 1010.7
20260510073007 20 36 1.6 14.5 0.00 0.00 0.00 71 1010.6
20260510071503 19 148 3.2 8.0 0.00 0.00 0.00 75 1010.7
20260510070003 19 302 4.8 8.0 0.00 0.00 0.00 76 1011.5
20260510064502 19 184 4.8 12.9 0.00 0.00 0.00 78 1009.2
20260510063058 18 150 1.6 8.0 0.00 0.00 0.00 79 1010.8
20260510061552 18 22 0.0 0.0 0.00 0.00 0.00 80 1011.9
20260510060050 18 22 0.0 0.0 0.00 0.00 0.00 80 1012.6
20260510054546 19 22 0.0 3.2 0.00 0.00 0.00 80 1012.8
20260510053051 19 22 0.0 1.6 0.00 0.00 0.00 77 1013.0
20260510051544 19 22 0.0 3.2 0.00 0.00 0.00 78 1013.0
20260510050047 19 22 1.6 4.8 0.00 0.00 0.00 77 1013.0
20260510044538 18 23 3.2 6.4 0.00 0.00 0.00 77 1013.0
20260510043035 18 103 0.0 6.4 0.00 0.00 0.00 80 1012.6
20260510041530 17 132 0.0 0.0 0.00 0.00 0.00 82 1011.8
20260510040029 17 132 0.0 0.0 0.00 0.00 0.00 82 1011.3
20260510034529 17 132 0.0 0.0 0.00 0.00 0.00 82 1011.1
20260510033037 17 132 0.0 0.0 0.00 0.00 0.00 81 1011.1
20260510031531 17 132 0.0 0.0 0.00 0.00 0.00 81 1011.2
20260510030028 17 132 0.0 0.0 0.00 0.00 0.00 79 1011.3
20260510024527 18 132 0.0 0.0 0.00 0.00 0.00 77 1010.9
20260510023026 18 132 0.0 0.0 0.00 0.00 0.00 75 1010.3
20260510021603 19 132 0.0 0.0 0.00 0.00 0.00 73 1009.7
20260510020025 20 132 0.0 0.0 0.00 0.00 0.00 70 1009.4
20260510014514 21 132 0.0 0.0 0.00 0.03 0.00 67 1009.2
20260510013101 23 132 0.0 3.2 0.00 0.03 0.00 63 1008.9
20260510011518 25 132 0.0 3.2 0.00 0.03 0.00 56 1008.6
20260510010027 25 182 1.6 6.4 0.00 0.03 0.00 50 1008.5
20260510004515 26 148 1.6 6.4 0.00 0.08 0.00 48 1008.2
20260510003041 26 161 1.6 8.0 0.00 0.08 0.00 46 1008.3
20260510001624 26 147 0.0 6.4 0.00 0.08 0.00 43 1008.2
20260510000037 27 151 4.8 9.7 0.00 0.08 0.00 39 1008.2
20260509234523 27 165 4.8 12.9 0.00 0.84 0.00 36 1008.3
20260509233128 27 192 3.2 16.1 0.00 0.84 0.00 36 1008.4
20260509231547 27 125 6.4 12.9 0.00 0.84 0.00 38 1008.5
20260509230015 28 185 4.8 9.7 0.00 0.84 0.00 35 1008.5
20260509224508 28 182 1.6 11.3 0.00 1.68 0.00 36 1008.6
20260509223027 28 122 4.8 16.1 0.00 1.68 0.00 36 1008.7
20260509221621 28 130 4.8 12.9 0.00 1.68 0.00 38 1008.8
20260509220039 28 132 4.8 14.5 0.00 1.68 0.00 38 1008.8
20260509214636 28 137 3.2 12.9 0.00 1.68 0.00 36 1008.9
20260509213003 28 148 4.8 12.9 0.00 1.68 0.00 35 1009.0
20260509211634 28 193 1.6 8.0 0.00 1.68 0.00 36 1009.2
20260509210010 28 142 3.2 12.9 0.00 1.68 0.00 42 1009.5
20260509204509 29 157 1.6 8.0 0.00 1.68 0.00 41 1009.6
20260509201522 28 205 4.8 14.5 0.00 1.68 0.00 38 1009.9
20260509200113 28 164 3.2 9.7 0.00 1.68 0.00 38 1010.1
20260509194544 28 165 4.8 16.1 0.00 1.68 0.00 38 1010.2
20260509193124 28 138 4.8 11.3 0.00 1.68 0.00 44 1010.2
20260509191514 28 144 4.8 11.3 0.00 1.68 0.00 43 1010.3
20260509190101 27 142 3.2 12.9 0.00 1.68 0.00 39 1010.2
20260509184609 27 173 4.8 11.3 0.00 1.68 0.00 47 1010.3
20260509183100 27 185 4.8 11.3 0.00 1.68 0.00 47 1010.4
20260509181528 27 195 1.6 12.9 0.00 1.68 0.00 57 1010.7
20260509180126 27 115 6.4 12.9 0.00 1.68 0.00 55 1010.9
20260509174507 27 280 1.6 8.0 0.00 1.68 0.00 59 1011.1
20260509173007 26 153 3.2 11.3 0.00 1.68 0.00 61 1011.2
20260509171534 25 168 1.6 6.4 0.00 1.68 0.00 65 1011.3
20260509170111 25 168 3.2 8.0 0.00 1.68 0.00 68 1011.3